Home   Weather   Washington County   Past weeks
Flag for USA

Past Weather in Washington County, Kentucky, USA — Yesterday and Last 2 Weeks

Now
55 °F

Scattered clouds.


Feels Like: 53 °F
Forecast: 60 / 43 °F
Wind: 10 mph from West

Location: Somerset Weather Reporting Station

Current Time: Oct 16, 2019 at 1:22:16 pm

Latest Report: Oct 16, 2019 at 12:55 pm


Visibility: 10 mi

Pressure: 29.95 "Hg

Humidity: 51%

Dew Point: 37 °F

Location of Washington CountyLocation

Past Weather in Washington County — Graph

°F

Washington County Temperature Yesterday

Maximum temperature yesterday: 72 °F (at 3:15 pm)
Minimum temperature yesterday: 39 °F (at 5:35 am)
Average temperature yesterday: 55 °F

High & Low Weather Summary for the Past Weeks

 TemperatureHumidityPressure
High93 °F (Oct 1, 3:35 pm)100% (Oct 2, 5:15 am)30.24 "Hg (Oct 2, 5:15 am)
Low34 °F (Oct 13, 2:55 am)19% (Oct 13, 6:15 pm)29.77 "Hg (Oct 16, 5:35 am)
Average63 °F68%30.10 "Hg
* Reported Oct 1 11:15 am — Oct 16 11:55 am, Washington County. Weather by CustomWeather, © 2019

Note: Actual official high and low records may vary slightly from our data, if they occured in-between our weather recording intervals... More about our weather records

Advertising

Washington County Weather History for the Previous 24 Hours

Scroll right to see more
 ConditionsComfort  
Time TempWeatherWind HumidityBarometerVisibility
11:55 am
Wed, Oct 16
54 °FScattered clouds.13 mph54%29.95 "Hg10 mi
11:15 am52 °FBroken clouds.9 mph62%29.94 "Hg10 mi
10:55 am50 °FPartly sunny.7 mph71%29.94 "Hg10 mi
10:15 am50 °FScattered clouds.7 mph76%29.93 "Hg10 mi
9:55 am48 °FCloudy.7 mph87%29.93 "Hg10 mi
9:35 am48 °FCloudy.6 mph94%29.91 "Hg10 mi
9:15 am48 °FRain. Mostly cloudy.5 mph94%29.90 "Hg10 mi
8:55 am46 °FLight rain. Overcast.5 mph93%29.88 "Hg7 mi
8:35 am48 °FLight rain. More clouds than sun.7 mph87%29.88 "Hg10 mi
8:15 am48 °FMore clouds than sun.7 mph87%29.85 "Hg10 mi
7:55 am48 °FMore clouds than sun.8 mph87%29.86 "Hg10 mi
7:35 am48 °FMostly cloudy.14 mph94%29.84 "Hg10 mi
7:15 am50 °FDrizzle. Overcast.10 mph88%29.83 "Hg7 mi
6:55 am59 °FLight rain. Mostly cloudy.17 mph100%29.80 "Hg10 mi
6:30 am59 °FLight rain. Overcast.7 mph100%29.78 "Hg7 mi
6:15 am59 °FRain. Mostly cloudy.5 mph100%29.78 "Hg10 mi
5:55 am59 °FLight rain. Mostly cloudy.6 mph100%29.79 "Hg10 mi
5:35 am59 °FLight rain. Mostly cloudy.No wind100%29.77 "Hg10 mi
5:15 am59 °FRain. Mostly cloudy.3 mph100%29.78 "Hg7 mi
4:55 am61 °FHeavy rain. Mostly cloudy.8 mph100%29.79 "Hg4 mi
4:35 am61 °FHeavy rain. Overcast.No wind100%29.78 "Hg3 mi
4:15 am61 °FMostly cloudy.No wind100%29.78 "Hg7 mi
3:55 am61 °FMostly cloudy.No wind100%29.79 "Hg7 mi
3:35 am61 °FMostly cloudy.3 mph100%29.80 "Hg7 mi
2:55 am61 °FThundershowers. Overcast.No wind94%29.84 "Hg2 mi
2:35 am61 °FRain. Overcast.5 mph88%29.84 "Hg10 mi
1:55 am63 °FOvercast.5 mph73%29.86 "Hg10 mi
1:35 am61 °FMostly cloudy.5 mph72%29.86 "Hg10 mi
1:15 am61 °FPartly cloudy.No wind72%29.86 "Hg10 mi
12:55 am61 °FPassing clouds.No wind72%29.86 "Hg10 mi
11:35 pm
Tue, Oct 15
61 °FOvercast.No wind72%29.90 "Hg10 mi
11:15 pm63 °FPassing clouds.No wind64%29.90 "Hg10 mi
10:35 pm63 °FPassing clouds.No wind64%29.90 "Hg10 mi
9:55 pm63 °FPassing clouds.No wind64%29.91 "Hg10 mi
9:35 pm63 °FPassing clouds.No wind64%29.91 "Hg10 mi
8:55 pm64 °FOvercast.3 mph60%29.92 "Hg10 mi
8:15 pm66 °FOvercast.3 mph52%29.93 "Hg10 mi
7:55 pm68 °FOvercast.3 mph49%29.93 "Hg10 mi
7:35 pm68 °FOvercast.No wind49%29.93 "Hg10 mi
7:15 pm68 °FPassing clouds.No wind49%29.92 "Hg10 mi
6:55 pm68 °FPartly sunny.6 mph46%29.93 "Hg10 mi
6:35 pm70 °FScattered clouds.3 mph43%29.93 "Hg10 mi
5:55 pm70 °FSunny.8 mph40%29.94 "Hg10 mi
5:35 pm70 °FScattered clouds.6 mph43%29.94 "Hg10 mi
4:55 pm72 °FSunny.7 mph50%29.96 "Hg10 mi
4:15 pm72 °FScattered clouds.6 mph41%29.96 "Hg10 mi
3:55 pm72 °FScattered clouds.5 mph44%29.97 "Hg10 mi
3:35 pm70 °FScattered clouds.5 mph46%29.97 "Hg10 mi
3:15 pm72 °FOvercast.6 mph41%29.99 "Hg10 mi
2:55 pm70 °FBroken clouds.6 mph43%30.00 "Hg10 mi
2:35 pm70 °FBroken clouds.6 mph40%30.01 "Hg10 mi
1:55 pm64 °FOvercast.No wind46%30.03 "Hg10 mi
1:35 pm63 °FOvercast.No wind45%30.04 "Hg10 mi
1:15 pm63 °FOvercast.3 mph45%30.05 "Hg10 mi
Weather by CustomWeather, © 2019

See weather overview